QPF
0.00 0.00 0.00 0.00 0.00 0.00 0.00 0.00 0.00 0.00 0.00 0.00 0.00 0.00 0.00 0.00 0.00 0.00 0.00 0.00 0.00 0.00 0.00 0.00 0.00 0.00 0.00 0.00 0.00 0.00 0.00 0.00 0.00 0.00 0.00 0.00 0.00 0.00 0.00 0.00 0.01 0.04 0.08 0.03 0.00
0.00 0.00 0.00 0.00 0.00 0.00 0.00 0.00 0.00 0.00 0.00 0.00 0.00 0.00 0.00 0.00 0.00 0.00 0.00 0.00 0.00 0.00 0.00 0.00 0.00 0.00 0.00 0.00 0.00 0.00 0.00 0.00 0.00 0.00 0.00 0.00 0.00 0.00 0.00 0.00 0.00 0.01 0.01 0.00 0.00
0.00 0.00 0.00 0.00 0.00 0.00 0.00 0.00 0.00 0.00 0.00 0.00 0.00 0.00 0.00 0.00 0.00 0.00 0.00 0.00 0.00 0.00 0.00 0.00 0.00 0.00 0.00 0.00 0.00 0.00 0.00 0.00 0.00 0.00 0.00 0.00 0.00 0.00 0.00 0.00 0.00 0.00 0.00 0.00 0.00
0.00 0.00 0.00 0.00 0.00 0.00 0.00 0.00 0.00 0.00 0.00 0.00 0.00 0.00 0.00 0.00 0.00 0.00 0.00 0.00 0.00 0.00 0.00 0.00 0.00 0.00 0.00 0.00 0.00 0.00 0.00 0.00 0.00 0.00 0.00 0.00 0.00 0.00 0.00 0.00 0.00 0.00 0.00 0.00 0.00
0.00 0.00 0.00 0.00 0.00 0.00 0.00 0.00 0.00 0.00 0.00 0.00 0.00 0.00 0.00 0.00 0.00 0.00 0.00 0.00 0.00 0.00 0.00 0.00 0.00 0.00 0.00 0.00 0.00 0.00 0.00 0.00 0.00 0.00 0.00 0.00 0.00 0.00 0.00 0.00 0.00 0.00 0.00 0.00 0.00
0.00 0.00 0.00 0.00 0.00 0.00 0.00 0.00 0.00 0.00 0.00 0.00 0.00 0.00 0.00 0.00 0.00 0.00 0.00 0.00 0.00 0.00 0.00 0.00 0.00 0.00 0.00 0.00 0.00 0.00 0.00 0.00 0.00 0.00 0.00 0.00 0.00 0.00 0.00 0.00 0.00 0.00 0.00 0.00 0.00
0.00 0.00 0.00 0.00 0.00 0.00 0.00 0.00 0.00 0.00 0.00 0.00 0.00 0.00 0.00 0.00 0.00 0.00 0.00 0.00 0.00 0.00 0.00 0.00 0.00 0.00 0.00 0.00 0.00 0.00 0.00 0.00 0.00 0.00 0.00 0.00 0.00 0.00 0.00 0.00 0.00 0.00 0.00 0.00 0.00
0.00 0.00 0.00 0.00 0.00 0.00 0.00 0.00 0.00 0.00 0.00 0.00 0.00 0.00 0.00 0.00 0.00 0.00 0.00 0.00 0.00 0.00 0.00 0.00 0.00 0.00 0.00 0.00 0.00 0.00 0.00 0.00 0.00 0.00 0.00 0.00 0.00 0.00 0.00 0.00 0.00 0.00 0.00 0.00 0.00
0.00 0.00 0.00 0.00 0.00 0.00 0.00 0.00 0.00 0.00 0.00 0.00 0.00 0.00 0.00 0.00 0.00 0.00 0.00 0.00 0.00 0.00 0.00 0.00 0.00 0.00 0.00 0.00 0.00 0.00 0.00 0.00 0.00 0.00 0.00 0.00 0.00 0.00 0.00 0.00 0.00 0.00 0.00 0.00 0.00
0.00 0.00 0.00 0.00 0.00 0.00 0.00 0.00 0.00 0.00 0.00 0.00 0.00 0.00 0.00 0.00 0.00 0.00 0.00 0.00 0.00 0.00 0.00 0.00 0.00 0.00 0.00 0.00 0.00 0.00 0.00 0.00 0.00 0.00 0.00 0.00 0.00 0.00 0.00 0.00 0.00 0.00 0.00 0.00 0.00
0.00 0.00 0.00 0.00 0.00 0.00 0.00 0.00 0.00 0.00 0.00 0.00 0.00 0.00 0.00 0.00 0.00 0.00 0.00 0.00 0.00 0.00 0.00 0.00 0.00 0.00 0.00 0.00 0.00 0.00 0.00 0.00 0.00 0.00 0.00 0.00 0.00 0.00 0.00 0.00 0.00 0.00 0.00 0.00 0.00
0.00 0.00 0.00 0.00 0.00 0.00 0.00 0.00 0.00 0.00 0.00 0.00 0.00 0.00 0.00 0.00 0.00 0.00 0.00 0.00 0.00 0.00 0.00 0.00 0.00 0.00 0.00 0.00 0.00 0.00 0.00 0.00 0.00 0.00 0.00 0.00 0.00 0.00 0.00 0.00 0.00 0.00 0.00 0.00 0.00
0.00 0.00 0.00 0.00 0.00 0.00 0.00 0.00 0.00 0.00 0.00 0.00 0.00 0.00 0.00 0.00 0.00 0.00 0.00 0.00 0.00 0.00 0.00 0.00 0.00 0.00 0.00 0.00 0.00 0.00 0.00 0.00 0.00 0.00 0.00 0.00 0.00 0.00 0.00 0.00 0.00 0.00 0.00 0.00 0.00
0.00 0.00 0.00 0.00 0.00 0.00 0.00 0.00 0.00 0.00 0.00 0.00 0.00 0.00 0.00 0.00 0.00 0.00 0.00 0.00 0.00 0.00 0.00 0.00 0.00 0.00 0.00 0.00 0.00 0.00 0.00 0.00 0.00 0.00 0.00 0.00 0.00 0.00 0.00 0.00 0.00 0.00 0.00 0.00 0.00
0.00 0.00 0.00 0.00 0.00 0.00 0.00 0.00 0.00 0.00 0.00 0.00 0.00 0.00 0.00 0.00 0.00 0.00 0.00 0.00 0.00 0.00 0.00 0.00 0.00 0.00 0.00 0.00 0.00 0.00 0.00 0.00 0.00 0.00 0.00 0.00 0.00 0.00 0.00 0.00 0.00 0.00 0.00 0.00 0.00
0.00 0.00 0.00 0.00 0.00 0.00 0.00 0.00 0.00 0.00 0.00 0.00 0.00 0.00 0.00 0.00 0.00 0.00 0.00 0.00 0.00 0.00 0.00 0.00 0.00 0.00 0.00 0.00 0.00 0.00 0.00 0.00 0.00 0.00 0.00 0.00 0.00 0.00 0.00 0.00 0.00 0.00 0.00 0.00 0.00
0.00 0.00 0.00 0.00 0.00 0.00 0.00 0.00 0.00 0.00 0.00 0.00 0.00 0.00 0.00 0.00 0.00 0.00 0.00 0.00 0.00 0.00 0.00 0.00 0.00 0.00 0.00 0.00 0.00 0.00 0.00 0.00 0.00 0.00 0.00 0.00 0.00 0.00 0.00 0.00 0.00 0.00 0.00 0.00 0.00
0.00 0.00 0.00 0.00 0.00 0.00 0.00 0.00 0.00 0.00 0.00 0.00 0.00 0.00 0.00 0.00 0.00 0.00 0.00 0.00 0.00 0.00 0.00 0.00 0.00 0.00 0.00 0.00 0.00 0.00 0.00 0.00 0.00 0.00 0.00 0.00 0.00 0.00 0.00 0.00 0.00 0.00 0.00 0.00 0.00
0.00 0.00 0.00 0.00 0.00 0.00 0.00 0.00 0.00 0.00 0.00 0.00 0.00 0.00 0.00 0.00 0.00 0.00 0.00 0.00 0.00 0.00 0.00 0.00 0.00 0.00 0.00 0.00 0.00 0.00 0.00 0.00 0.00 0.00 0.00 0.00 0.00 0.00 0.00 0.00 0.00 0.00 0.00 0.00 0.00
0.00 0.00 0.00 0.00 0.00 0.00 0.00 0.00 0.00 0.00 0.00 0.00 0.00 0.00 0.00 0.00 0.00 0.00 0.00 0.00 0.00 0.00 0.00 0.00 0.00 0.00 0.00 0.00 0.00 0.00 0.00 0.00 0.00 0.00 0.00 0.00 0.00 0.00 0.00 0.00 0.00 0.00 0.00 0.00 0.00
0.00 0.00 0.00 0.00 0.00 0.00 0.00 0.00 0.00 0.00 0.00 0.00 0.00 0.00 0.00 0.00 0.00 0.00 0.00 0.00 0.00 0.00 0.00 0.00 0.00 0.00 0.00 0.00 0.00 0.00 0.00 0.00 0.00 0.00 0.00 0.00 0.00 0.00 0.00 0.00 0.00 0.00 0.00 0.00 0.00
0.00 0.00 0.00 0.00 0.00 0.00 0.00 0.00 0.00 0.00 0.00 0.00 0.00 0.00 0.00 0.00 0.00 0.00 0.00 0.00 0.00 0.00 0.00 0.00 0.00 0.00 0.00 0.00 0.00 0.00 0.00 0.00 0.00 0.00 0.00 0.00 0.00 0.00 0.00 0.00 0.00 0.00 0.00 0.00 0.00
0.00 0.00 0.00 0.00 0.00 0.00 0.00 0.00 0.00 0.00 0.00 0.00 0.00 0.00 0.00 0.00 0.00 0.00 0.00 0.00 0.00 0.00 0.00 0.00 0.00 0.00 0.00 0.00 0.00 0.00 0.00 0.00 0.00 0.00 0.00 0.00 0.00 0.00 0.00 0.00 0.00 0.00 0.00 0.00 0.00
0.00 0.00 0.00 0.00 0.00 0.00 0.00 0.00 0.00 0.00 0.00 0.00 0.00 0.00 0.00 0.00 0.00 0.00 0.00 0.00 0.00 0.00 0.00 0.00 0.00 0.00 0.00 0.00 0.00 0.00 0.00 0.00 0.00 0.00 0.00 0.00 0.00 0.00 0.00 0.00 0.00 0.00 0.00 0.00 0.00
0.00 0.00 0.00 0.00 0.00 0.00 0.00 0.00 0.00 0.00 0.00 0.00 0.00 0.00 0.00 0.00 0.00 0.00 0.00 0.00 0.00 0.00 0.00 0.00 0.00 0.00 0.00 0.00 0.00 0.00 0.00 0.00 0.00 0.00 0.00 0.00 0.00 0.00 0.00 0.00 0.00 0.00 0.00 0.00 0.00
0.00 0.00 0.00 0.00 0.00 0.00 0.00 0.00 0.00 0.00 0.00 0.00 0.00 0.00 0.00 0.00 0.00 0.00 0.00 0.00 0.00 0.00 0.00 0.00 0.00 0.00 0.00 0.00 0.00 0.00 0.00 0.00 0.00 0.00 0.00 0.00 0.00 0.00 0.00 0.00 0.00 0.00 0.00 0.00 0.00
0.00 0.00 0.00 0.00 0.00 0.00 0.00 0.00 0.00 0.00 0.00 0.00 0.00 0.00 0.00 0.00 0.00 0.00 0.00 0.00 0.00 0.00 0.00 0.00 0.00 0.00 0.00 0.00 0.00 0.00 0.00 0.00 0.00 0.00 0.00 0.00 0.00 0.00 0.00 0.00 0.00 0.00 0.00 0.00 0.00
MSLP
1017.05 1016.68 1016.44 1016.16 1015.94 1015.73 1015.55 1015.41 1015.28 1015.20 1015.12 1015.04 1014.95 1014.81 1014.71 1014.58 1014.23 1013.66 1011.47 1009.42 1008.90 1009.57 1009.66 1008.83 1008.41 1007.59 1006.93 1006.35 1005.68 1004.84 1004.15 1001.98 1000.22 999.46 999.61 1000.14 1000.45 1001.15 1001.92 1004.42 1007.41 1010.51 1008.62 1007.18 1006.46
1017.02 1016.72 1016.37 1016.03 1015.79 1015.58 1015.41 1015.24 1015.12 1015.00 1014.94 1014.88 1014.73 1014.66 1014.66 1014.53 1013.45 1011.19 1008.86 1008.90 1008.96 1009.46 1009.29 1008.37 1007.38 1006.99 1006.32 1005.59 1005.14 1004.52 1003.72 1001.72 1000.81 1000.20 999.91 1000.35 1000.91 1001.21 1001.50 1002.70 1005.37 1007.76 1007.36 1006.59 1006.08
1017.01 1016.59 1016.21 1015.90 1015.63 1015.43 1015.22 1015.05 1014.90 1014.77 1014.70 1014.66 1014.60 1014.59 1014.58 1014.32 1012.21 1008.23 1007.91 1008.67 1008.88 1009.17 1008.89 1007.68 1006.80 1006.23 1005.69 1005.14 1004.36 1003.79 1002.99 1001.77 1001.50 1001.34 1000.95 1000.95 1001.29 1001.45 1001.54 1001.83 1003.14 1003.54 1004.13 1004.74 1005.08
1016.95 1016.43 1016.10 1015.82 1015.55 1015.32 1015.13 1014.89 1014.67 1014.53 1014.46 1014.44 1014.45 1014.45 1014.39 1013.67 1009.85 1007.88 1008.38 1008.76 1008.93 1008.86 1008.61 1007.40 1006.42 1005.62 1005.23 1004.52 1003.80 1003.23 1002.73 1002.10 1001.94 1001.80 1001.98 1001.73 1001.58 1001.56 1001.83 1002.16 1002.57 1002.86 1003.41 1003.97 1004.47
1016.77 1016.36 1016.01 1015.69 1015.34 1015.10 1014.90 1014.70 1014.44 1014.26 1014.23 1014.27 1014.32 1014.39 1014.41 1011.86 1008.01 1008.05 1008.42 1008.67 1008.66 1008.63 1007.76 1006.69 1005.93 1005.34 1004.64 1003.86 1003.13 1002.79 1002.33 1002.08 1001.83 1002.16 1002.45 1002.14 1001.89 1002.10 1001.75 1002.22 1002.77 1002.88 1003.38 1004.00 1004.40
1016.63 1016.29 1015.90 1015.50 1015.18 1014.93 1014.71 1014.50 1014.28 1014.12 1014.11 1014.15 1014.23 1014.35 1013.31 1009.43 1006.37 1007.55 1007.49 1008.05 1007.59 1007.63 1006.83 1006.03 1005.42 1004.86 1004.06 1003.24 1002.56 1002.24 1002.50 1002.22 1001.87 1002.21 1002.34 1002.22 1002.25 1001.93 1001.91 1002.40 1002.65 1003.02 1003.26 1003.52 1004.05
1016.61 1016.23 1015.76 1015.27 1014.94 1014.70 1014.45 1014.21 1014.01 1013.89 1013.93 1014.01 1014.12 1013.66 1011.14 1007.50 1005.86 1006.92 1007.07 1007.24 1007.10 1006.57 1005.94 1005.51 1004.95 1004.35 1004.00 1003.26 1002.48 1002.46 1002.37 1001.98 1001.93 1001.92 1001.96 1001.95 1002.16 1001.57 1001.97 1002.66 1002.72 1003.23 1003.52 1003.71 1004.05
1016.45 1015.96 1015.46 1015.09 1014.75 1014.46 1014.21 1013.97 1013.78 1013.68 1013.78 1013.88 1014.00 1013.00 1009.29 1005.42 1006.01 1006.21 1006.56 1006.64 1006.48 1006.20 1005.86 1005.35 1004.94 1004.70 1003.99 1003.29 1002.63 1002.54 1002.51 1001.88 1001.39 1001.63 1001.78 1002.11 1001.71 1001.44 1001.85 1002.57 1002.94 1003.38 1003.79 1004.29 1005.14
1016.24 1015.60 1015.12 1014.79 1014.49 1014.25 1014.02 1013.80 1013.53 1013.60 1013.65 1013.79 1013.51 1011.66 1007.66 1006.27 1005.94 1005.60 1005.94 1005.83 1005.85 1006.08 1005.92 1005.53 1005.54 1005.11 1004.24 1003.47 1002.63 1002.40 1001.93 1001.30 1000.59 1000.50 1001.23 1001.78 1001.67 1001.40 1002.00 1002.57 1003.03 1003.70 1004.35 1005.12 1006.01
1015.97 1015.39 1014.82 1014.34 1014.12 1013.99 1013.89 1013.72 1013.59 1013.67 1013.46 1012.75 1011.29 1010.04 1006.53 1005.12 1005.04 1005.20 1005.55 1005.50 1005.71 1005.97 1006.02 1006.07 1005.76 1005.01 1003.98 1003.05 1001.95 1001.19 1000.94 1000.43 999.73 1000.22 1000.88 1001.10 1001.34 1001.63 1002.24 1002.67 1003.25 1004.01 1004.79 1005.98 1007.41
1015.87 1015.09 1014.49 1014.04 1013.84 1013.77 1013.66 1013.36 1013.27 1012.10 1010.97 1008.71 1007.15 1006.16 1004.34 1004.45 1004.26 1004.89 1005.24 1005.45 1005.56 1005.75 1005.47 1005.33 1004.99 1003.72 1002.87 1002.37 1001.67 1000.78 1000.27 999.60 999.05 999.50 1000.32 1000.73 1000.93 1001.04 1001.87 1002.45 1003.09 1004.03 1005.32 1006.77 1008.59
1015.68 1014.93 1014.28 1013.81 1013.62 1013.76 1013.62 1010.47 1008.61 1008.22 1007.51 1006.75 1006.24 1005.13 1004.32 1004.12 1004.35 1004.51 1005.03 1005.30 1005.29 1005.02 1005.09 1004.60 1003.76 1003.00 1002.29 1001.64 1001.23 1000.84 1000.60 1000.04 999.58 999.64 1000.19 1000.69 1000.97 1000.78 1001.13 1002.18 1002.80 1003.93 1005.60 1007.40 1009.61
1015.62 1014.85 1014.26 1013.81 1013.58 1013.62 1011.05 1008.82 1008.14 1007.58 1006.94 1004.50 1003.78 1003.65 1003.59 1004.04 1003.92 1003.96 1004.64 1004.81 1004.58 1004.53 1004.08 1003.56 1002.34 1002.13 1001.90 1001.27 1000.94 1000.92 1001.10 1000.68 1000.42 1000.05 1000.11 1000.69 1001.11 1000.95 1000.75 1001.57 1002.64 1003.89 1005.50 1007.49 1009.41
1015.42 1014.76 1014.25 1013.96 1013.88 1009.87 1008.63 1008.20 1007.51 1007.54 1006.57 1003.04 1002.38 1002.39 1002.56 1003.33 1003.44 1003.44 1003.60 1004.45 1004.20 1003.59 1003.44 1002.76 1002.23 1001.38 1001.05 1001.01 1000.88 1000.93 1001.25 1001.13 1000.87 1000.53 999.99 1000.38 1000.52 1000.24 1000.31 1000.73 1002.04 1004.05 1005.99 1007.75 1009.18
1015.23 1014.51 1014.09 1014.00 1012.19 1009.10 1008.45 1007.82 1007.74 1007.81 1005.19 1002.35 1002.30 1002.57 1002.33 1002.58 1001.97 1002.49 1002.69 1003.60 1003.45 1003.10 1002.86 1001.82 1001.47 1000.96 1000.70 1000.56 1001.01 1000.76 1001.15 1001.00 1000.61 1000.85 1000.77 1000.22 999.92 999.16 998.78 999.74 1001.40 1003.50 1005.52 1007.26 1008.97
1015.06 1014.23 1013.72 1012.38 1011.68 1008.74 1008.20 1008.09 1008.02 1007.14 1003.42 1001.56 1002.07 1002.36 1002.57 1002.40 1002.37 1002.06 1002.37 1003.00 1003.41 1003.18 1002.32 1001.53 1001.07 1000.32 1000.07 1000.26 1000.44 1000.93 1000.95 1001.19 1001.25 1000.95 1000.60 1000.33 999.99 998.56 998.16 998.50 1000.07 1002.43 1004.65 1006.39 1008.07
1014.62 1013.82 1013.55 1011.25 1009.51 1008.70 1008.50 1007.92 1007.38 1005.30 1002.45 1001.95 1002.03 1002.19 1002.24 1002.12 1002.35 1002.10 1001.97 1002.42 1002.89 1002.81 1002.03 1001.57 1000.80 1000.32 1000.16 1000.09 1000.29 1000.62 1001.16 1001.18 1001.16 1000.95 999.86 999.99 999.21 997.85 997.51 997.38 998.54 1000.73 1003.64 1005.70 1007.11
1013.93 1013.53 1011.42 1010.25 1009.40 1009.12 1008.81 1008.02 1006.70 1004.49 1003.32 1003.41 1003.40 1003.32 1002.91 1002.46 1001.74 1001.87 1001.87 1001.89 1002.18 1002.47 1001.82 1000.79 1000.05 999.83 999.86 999.83 1000.16 999.95 1000.71 1000.79 1000.41 1000.25 999.64 998.84 997.83 997.08 996.77 997.41 997.96 1000.69 1003.03 1005.03 1006.27
1013.19 1011.60 1010.60 1009.80 1009.58 1009.36 1008.94 1007.37 1005.70 1005.30 1005.56 1005.40 1004.81 1004.11 1003.12 1002.31 1001.99 1001.29 1001.32 1001.24 1001.16 1001.44 1001.68 1001.33 999.84 999.19 998.45 998.81 999.82 999.98 999.83 1000.94 1000.82 1000.68 1000.12 999.07 997.73 997.02 997.79 998.81 1000.06 1001.59 1003.15 1004.56 1005.61
1013.79 1010.64 1009.52 1009.82 1009.58 1009.45 1008.87 1007.61 1006.40 1006.56 1007.04 1006.88 1006.28 1005.72 1004.61 1003.36 1002.34 1001.59 1001.30 1000.97 1000.61 1000.71 1000.52 1000.46 999.90 999.96 998.97 998.51 998.50 999.21 1000.19 1000.35 1000.69 1000.78 1000.46 999.52 998.70 997.73 997.88 998.88 1000.63 1002.24 1003.93 1005.00 1005.42
1013.47 1010.17 1009.86 1009.71 1009.23 1009.13 1008.36 1007.11 1007.34 1007.66 1008.20 1008.55 1007.86 1007.38 1006.69 1005.82 1004.80 1003.59 1002.46 1001.41 1000.88 1001.15 1000.85 1000.35 1000.18 999.45 999.38 998.44 998.31 998.76 999.48 1000.07 1000.66 1000.48 1000.16 999.91 999.14 999.07 998.77 999.51 1000.95 1002.36 1003.90 1005.26 1005.80
1013.24 1010.06 1009.99 1009.67 1009.32 1008.41 1008.26 1009.17 1009.76 1009.08 1009.29 1009.50 1009.33 1009.17 1008.57 1007.89 1006.78 1005.57 1004.51 1003.57 1002.88 1002.94 1002.94 1002.15 1001.78 1000.60 999.61 999.01 998.58 998.50 999.20 999.49 999.81 999.99 1000.56 999.88 999.18 999.68 999.51 999.95 1001.49 1002.30 1003.03 1004.41 1005.25
1014.22 1011.16 1010.41 1009.91 1010.17 1010.65 1010.50 1010.90 1010.55 1010.38 1011.13 1011.74 1011.61 1011.51 1011.07 1010.58 1009.48 1007.44 1006.42 1005.58 1005.14 1005.01 1005.72 1005.50 1003.54 1002.42 1001.10 1000.50 999.58 999.03 998.86 999.53 1000.76 1000.95 1000.58 1000.30 999.05 999.66 999.98 1000.41 1002.27 1003.28 1004.96 1005.57 1004.16
1014.91 1012.49 1012.25 1011.89 1013.66 1013.97 1013.38 1012.53 1012.43 1012.42 1013.10 1014.31 1014.31 1013.38 1012.59 1012.21 1011.82 1010.15 1009.15 1008.34 1007.79 1008.19 1008.02 1007.37 1006.48 1005.01 1002.63 1001.24 1000.62 999.83 999.45 999.48 1000.00 1000.65 1001.01 999.72 999.57 999.74 999.69 1000.44 1001.96 1003.08 1003.85 1004.38 1006.18
1016.40 1015.80 1016.40 1014.80 1015.07 1015.51 1015.21 1015.23 1015.17 1015.09 1015.82 1016.27 1015.85 1015.65 1015.26 1015.19 1014.74 1013.46 1012.42 1011.81 1010.93 1010.60 1010.78 1010.76 1007.84 1007.05 1004.84 1003.22 1002.15 1000.91 1000.25 1000.58 1001.41 1001.76 1000.84 1000.13 999.77 999.43 1000.15 1001.10 1002.25 1003.22 1003.67 1004.87 1005.34
1018.77 1018.74 1017.87 1016.70 1016.91 1016.85 1017.40 1017.56 1017.65 1017.78 1018.07 1017.51 1017.65 1017.66 1017.49 1017.15 1016.95 1015.98 1015.46 1014.94 1014.32 1013.46 1013.41 1013.35 1011.83 1009.98 1006.49 1004.40 1003.62 1002.50 1001.26 1000.72 1000.23 1000.70 1000.71 1000.30 999.73 999.66 1000.29 1001.01 1002.22 1002.08 1003.26 1004.03 1004.34
1021.64 1020.38 1019.08 1018.14 1017.97 1018.31 1018.97 1019.30 1019.26 1019.16 1019.02 1019.01 1018.81 1018.44 1018.01 1017.90 1018.18 1017.94 1017.39 1016.53 1015.76 1015.27 1014.75 1014.84 1014.03 1012.74 1008.74 1007.25 1005.40 1003.39 1001.23 1001.10 1000.31 1000.14 1000.01 999.51 999.93 999.91 1000.01 1000.53 1002.22 1001.85 1002.40 1003.02 1003.45
Thickness
5730 5734 5736 5739 5742 5745 5747 5749 5751 5752 5754 5755 5756 5758 5760 5761 5765 5772 5780 5803 5810 5808 5809 5813 5813 5818 5824 5816 5826 5835 5804 5807 5842 5855 5855 5869 5861 5874 5876 5834 5806 5761 5794 5821 5843
5729 5732 5735 5739 5742 5745 5747 5749 5751 5753 5754 5755 5757 5759 5759 5761 5771 5782 5808 5810 5811 5808 5805 5804 5804 5813 5807 5813 5819 5812 5801 5817 5856 5863 5859 5860 5856 5858 5861 5857 5822 5797 5815 5838 5848
5727 5731 5735 5738 5741 5744 5747 5749 5751 5753 5755 5756 5757 5758 5759 5761 5774 5803 5817 5812 5811 5809 5810 5816 5818 5814 5803 5815 5817 5819 5806 5834 5846 5853 5856 5849 5848 5862 5854 5852 5849 5845 5844 5849 5848
5727 5731 5734 5737 5740 5742 5745 5748 5751 5753 5754 5755 5756 5757 5758 5765 5772 5812 5812 5810 5810 5810 5807 5810 5811 5802 5797 5798 5822 5806 5828 5836 5839 5845 5840 5838 5852 5846 5852 5846 5860 5862 5857 5853 5846
5727 5730 5733 5736 5740 5742 5744 5747 5750 5753 5754 5754 5755 5755 5759 5767 5791 5812 5811 5810 5810 5808 5804 5806 5802 5802 5793 5809 5820 5813 5825 5835 5841 5839 5837 5843 5837 5837 5847 5852 5861 5862 5853 5846 5844
5726 5729 5732 5736 5739 5741 5744 5746 5749 5751 5752 5753 5753 5753 5761 5764 5823 5814 5815 5811 5813 5808 5808 5813 5808 5816 5809 5813 5815 5828 5824 5828 5837 5833 5834 5826 5829 5838 5845 5850 5850 5849 5847 5846 5844
5724 5727 5731 5735 5738 5741 5743 5746 5749 5751 5751 5752 5752 5756 5768 5785 5824 5816 5816 5811 5815 5815 5808 5819 5823 5814 5815 5806 5831 5825 5808 5822 5826 5830 5827 5836 5814 5823 5843 5843 5840 5837 5840 5844 5843
5723 5727 5731 5734 5738 5741 5743 5745 5748 5750 5750 5750 5750 5757 5767 5824 5820 5816 5815 5810 5817 5819 5816 5823 5825 5813 5811 5824 5818 5806 5807 5789 5823 5827 5830 5825 5795 5832 5843 5835 5829 5831 5833 5833 5829
5723 5729 5732 5735 5738 5740 5742 5744 5746 5747 5747 5747 5750 5759 5770 5813 5802 5816 5816 5803 5810 5811 5813 5818 5810 5796 5804 5792 5790 5798 5778 5793 5810 5838 5826 5817 5801 5831 5839 5832 5825 5824 5824 5820 5820
5724 5729 5733 5737 5739 5740 5741 5742 5742 5742 5745 5749 5760 5754 5786 5789 5806 5810 5815 5810 5797 5795 5790 5788 5785 5777 5787 5785 5765 5786 5792 5806 5815 5824 5824 5814 5811 5821 5827 5826 5821 5819 5816 5810 5802
5724 5730 5735 5738 5740 5740 5740 5745 5742 5743 5752 5763 5775 5777 5796 5805 5815 5800 5806 5797 5793 5783 5765 5780 5764 5766 5786 5798 5806 5812 5812 5817 5836 5844 5818 5812 5813 5820 5822 5821 5816 5813 5806 5798 5789
5724 5730 5734 5738 5739 5738 5740 5756 5768 5772 5755 5778 5779 5787 5799 5804 5780 5791 5803 5776 5773 5760 5772 5768 5760 5790 5804 5807 5806 5803 5797 5801 5824 5836 5819 5808 5803 5823 5822 5812 5814 5808 5798 5788 5773
5724 5729 5733 5737 5738 5737 5756 5766 5779 5780 5751 5779 5794 5789 5791 5793 5777 5781 5790 5780 5770 5762 5769 5762 5787 5801 5796 5796 5793 5793 5785 5793 5796 5819 5822 5804 5785 5803 5823 5814 5813 5809 5798 5786 5771
5723 5728 5732 5734 5732 5764 5762 5773 5779 5777 5731 5770 5783 5791 5798 5792 5773 5799 5801 5780 5770 5766 5772 5775 5796 5793 5793 5786 5796 5773 5801 5797 5794 5791 5777 5806 5751 5793 5811 5803 5801 5793 5783 5773 5767
5722 5727 5729 5730 5742 5756 5763 5773 5773 5760 5708 5775 5779 5806 5797 5781 5789 5787 5807 5783 5764 5769 5774 5773 5782 5785 5780 5789 5794 5782 5800 5793 5797 5780 5778 5785 5771 5793 5823 5800 5789 5784 5780 5772 5761
5719 5725 5729 5738 5740 5761 5766 5766 5757 5720 5716 5765 5778 5769 5766 5775 5777 5788 5784 5790 5783 5765 5776 5779 5802 5798 5795 5800 5798 5800 5788 5783 5783 5776 5744 5770 5770 5782 5802 5805 5799 5787 5779 5773 5761
5719 5724 5726 5739 5741 5757 5758 5748 5714 5712 5776 5763 5756 5768 5763 5760 5761 5768 5763 5756 5744 5732 5741 5765 5773 5792 5797 5778 5791 5784 5764 5734 5730 5733 5739 5780 5772 5787 5815 5830 5812 5789 5776 5772 5764
5721 5724 5736 5741 5747 5748 5742 5721 5694 5741 5751 5756 5752 5751 5742 5756 5761 5760 5754 5744 5760 5751 5744 5741 5739 5775 5790 5777 5765 5772 5761 5738 5713 5728 5749 5792 5763 5790 5826 5827 5827 5791 5775 5768 5761
5723 5733 5734 5740 5740 5740 5720 5703 5716 5728 5733 5724 5732 5726 5737 5753 5754 5759 5749 5749 5760 5760 5730 5728 5739 5788 5801 5794 5775 5763 5750 5768 5745 5754 5741 5764 5792 5808 5806 5797 5790 5779 5771 5762 5755
5711 5731 5732 5735 5735 5726 5707 5697 5718 5726 5719 5715 5700 5716 5710 5732 5739 5750 5747 5762 5759 5769 5776 5749 5725 5762 5777 5793 5786 5764 5773 5740 5745 5705 5701 5739 5754 5769 5781 5779 5770 5755 5750 5750 5748
5707 5720 5725 5730 5731 5711 5695 5713 5716 5714 5709 5692 5692 5691 5699 5702 5715 5718 5726 5749 5765 5749 5757 5756 5744 5745 5764 5759 5758 5759 5745 5749 5749 5744 5716 5710 5735 5769 5779 5772 5756 5747 5740 5737 5732
5700 5702 5721 5723 5698 5711 5703 5694 5687 5695 5696 5688 5688 5683 5682 5686 5688 5699 5702 5718 5743 5729 5712 5735 5718 5704 5729 5765 5779 5770 5746 5751 5723 5718 5734 5730 5730 5773 5775 5765 5747 5753 5747 5739 5732
5687 5701 5715 5712 5680 5672 5685 5677 5681 5678 5668 5659 5658 5661 5662 5655 5652 5682 5691 5710 5715 5701 5679 5690 5698 5685 5702 5725 5744 5740 5753 5744 5733 5719 5707 5698 5717 5772 5761 5751 5735 5731 5715 5705 5698
5677 5674 5679 5685 5662 5645 5645 5654 5651 5659 5646 5632 5628 5638 5638 5635 5640 5645 5656 5671 5674 5662 5657 5667 5664 5668 5678 5701 5723 5720 5736 5748 5731 5702 5697 5715 5723 5745 5749 5739 5729 5718 5724 5713 5699
5655 5647 5636 5638 5637 5632 5633 5628 5618 5614 5610 5603 5601 5600 5596 5586 5590 5600 5613 5616 5630 5628 5623 5616 5642 5652 5674 5690 5697 5704 5710 5705 5680 5675 5675 5698 5707 5732 5730 5719 5713 5712 5710 5701 5698
5626 5615 5621 5627 5619 5612 5600 5590 5584 5579 5573 5573 5565 5562 5558 5552 5552 5556 5562 5568 5573 5585 5582 5576 5584 5599 5637 5674 5673 5670 5692 5702 5707 5695 5696 5702 5705 5738 5723 5717 5702 5710 5702 5695 5701
5599 5604 5604 5599 5596 5585 5572 5562 5556 5553 5547 5540 5534 5530 5528 5525 5519 5520 5522 5533 5543 5544 5550 5543 5548 5546 5598 5626 5633 5630 5678 5689 5701 5707 5706 5693 5705 5723 5717 5697 5692 5701 5699 5700 5700